Location: Newark
(13.6797°N, 8.5297°E)
Time: 08:35:17
(UTC+00:00)

deb Explorer IX - All Passes

Search period start: 20 January 2020 00:00
Search period end: 30 January 2020 00:00
Orbit: 548 x 1101 km, 38.8° (Epoch: 19 January)

Date Brightness Start Highest point End Pass type
(mag) Time Alt. Az. Time Alt. Az. Time Alt. Az.
20 Jan - 04:52:52 10° NNW 04:57:30 23° NNE 05:01:36 10° E visible
20 Jan - 06:39:31 10° WNW 06:44:52 63° SW 06:49:27 10° SE daylight
20 Jan - 19:24:41 10° SSW 19:30:42 38° SE 19:37:14 10° ENE visible
20 Jan - 21:11:20 10° WSW 21:18:04 51° NW 21:25:09 10° NE visible
20 Jan - 23:02:23 10° WNW 23:06:33 16° NNW 23:10:43 10° NNE night (unlit)
21 Jan - 04:30:20 10° NNW 04:35:14 24° NNE 04:39:34 10° E visible
21 Jan - 06:17:06 10° WNW 06:22:38 62° SW 06:27:19 10° SE daylight
21 Jan - 19:02:25 10° SSW 19:08:18 38° SE 19:14:47 10° ENE visible
21 Jan - 20:49:02 10° WSW 20:55:38 50° NW 21:02:41 10° NE visible
21 Jan - 22:40:04 10° WNW 22:44:11 16° NNW 22:48:18 10° NNE night (unlit)
22 Jan - 04:07:47 10° NNW 04:12:56 26° NNE 04:17:30 10° E visible
22 Jan - 05:54:40 10° WNW 06:00:22 61° SW 06:05:12 10° SE daylight
22 Jan - 18:40:08 10° SSW 18:45:53 38° SE 18:52:18 10° ENE visible
22 Jan - 20:26:45 10° WSW 20:33:13 48° NW 20:40:12 10° NE visible
22 Jan - 22:17:47 10° NW 22:21:48 15° NNW 22:25:50 10° NNE night (unlit)
23 Jan - 03:45:15 10° NNW 03:50:38 27° NNE 03:55:23 10° E visible
23 Jan - 05:32:12 10° WNW 05:38:05 60° SW 05:43:03 10° SE visible
23 Jan - 18:17:53 10° SSW 18:23:30 38° SE 18:29:49 10° ENE visible
23 Jan - 20:04:29 10° WSW 20:10:48 47° NW 20:17:42 10° NE visible
23 Jan - 21:55:30 10° NW 21:59:24 15° NNW 22:03:20 10° NNE night (unlit)
24 Jan - 03:22:42 10° NNW 03:28:18 29° NNE 03:33:17 10° E visible
24 Jan - 05:09:43 10° WNW 05:15:46 59° SW 05:20:53 10° SE visible
24 Jan - 17:55:37 10° SSW 18:01:07 39° SE 18:07:19 10° ENE visible
24 Jan - 19:42:14 10° WSW 19:48:23 45° NW 19:55:11 10° NE visible
24 Jan - 21:33:17 10° NW 21:37:00 15° NNW 21:40:49 10° N night (unlit)
25 Jan - 01:15:43 10° N 01:16:59 10° NNE 01:18:14 10° NNE night (unlit)
25 Jan - 03:00:08 10° NNW 03:05:57 30° NNE 03:11:08 10° E visible
25 Jan - 04:47:14 10° WNW 04:53:26 58° SW 04:58:42 10° SE visible
25 Jan - 17:33:23 10° SSW 17:38:43 39° SE 17:44:49 10° ENE visible
25 Jan - 19:20:00 10° WSW 19:25:58 44° NNW 19:32:39 10° NE visible
25 Jan - 21:11:04 10° NW 21:14:36 14° NNW 21:18:14 10° N visible
26 Jan - 00:52:50 10° N 00:54:37 11° NNE 00:56:22 10° NNE night (unlit)
26 Jan - 02:37:34 10° NNW 02:43:34 31° NNE 02:48:57 10° E visible
26 Jan - 04:24:43 10° WNW 04:31:04 58° SW 04:36:30 10° SE visible
26 Jan - 17:11:09 10° SSW 17:16:21 39° SE 17:22:18 10° ENE daylight
26 Jan - 18:57:47 10° WSW 19:03:33 42° NNW 19:10:05 10° NE visible
26 Jan - 20:48:53 10° NW 20:52:13 14° NNW 20:55:38 10° N visible
27 Jan - 00:30:05 10° N 00:32:14 11° NNE 00:34:20 10° NE night (unlit)
27 Jan - 02:15:00 10° NNW 02:21:10 32° NNE 02:26:45 10° E visible
27 Jan - 04:02:12 10° WNW 04:08:42 57° SW 04:14:17 10° SE visible
27 Jan - 16:48:55 10° SSW 16:53:57 39° SE 16:59:47 10° ENE daylight
27 Jan - 18:35:34 10° WSW 18:41:10 41° NNW 18:47:32 10° NE visible
27 Jan - 20:26:44 10° NW 20:29:48 13° NNW 20:32:59 10° N visible
28 Jan - 00:07:25 10° N 00:09:49 12° NNE 00:12:12 10° NE night (unlit)
28 Jan - 01:52:26 10° NNW 01:58:45 34° NNE 02:04:31 10° E visible
28 Jan - 03:39:40 10° WNW 03:46:18 56° SW 03:52:02 10° SE visible
28 Jan - 16:26:42 10° SSW 16:31:36 39° SE 16:37:17 10° ENE daylight
28 Jan - 18:13:22 10° W 18:18:46 39° NNW 18:24:57 10° NE visible
28 Jan - 20:04:39 10° NW 20:07:25 13° NNW 20:10:17 10° N visible
28 Jan - 23:44:47 10° N 23:47:25 12° NNE 23:50:00 10° NE night (unlit)
29 Jan - 01:29:52 10° NNW 01:36:19 35° NNE 01:42:15 10° E night (unlit)
29 Jan - 03:17:07 10° WNW 03:23:52 56° SW 03:29:46 10° SE visible
29 Jan - 16:04:29 10° SSW 16:09:15 39° SE 16:14:46 10° ENE daylight
29 Jan - 17:51:11 10° W 17:56:23 38° NNW 18:02:23 10° NE visible
29 Jan - 19:42:37 10° NW 19:45:02 12° NNW 19:47:32 10° N visible
29 Jan - 23:22:12 10° N 23:24:59 12° NNE 23:27:44 10° NE night (unlit)
